W6MAF Weather Reports


Display with metric or nautical units.
time (UTC)temp
F
wind
direction
speed
MPH
gust
MPH
rain 1hr
in
rain 24hr
in
rain mn
in
humidity
%
barometer
mb
20260831232022 80 169 19.0 15.0 0.00 0.00 0.00 4
20260831231524 80 166 17.0 24.0 0.00 0.00 0.00 4
20260831231027 80 166 16.0 13.0 0.00 0.00 0.00 4
20260831230528 80 184 22.0 19.0 0.00 0.00 0.00 4
20260831230031 80 183 22.0 22.0 0.00 0.00 0.00 4
20260831225530 80 174 18.0 27.0 0.00 0.00 0.00 4
20260831225032 80 204 15.0 18.0 0.00 0.00 0.00 5
20260831224534 80 197 16.0 16.0 0.00 0.00 0.00 5
20260831224036 80 179 15.0 10.0 0.00 0.00 0.00 5
20260831223539 80 176 18.0 14.0 0.00 0.00 0.00 5
20260831223041 80 166 20.0 24.0 0.00 0.00 0.00 5
20260831222539 80 179 19.0 21.0 0.00 0.00 0.00 5
20260831222041 80 170 19.0 24.0 0.00 0.00 0.00 3
20260831221544 80 203 11.0 23.0 0.00 0.00 0.00 5
20260831221046 80 187 14.0 13.0 0.00 0.00 0.00 5
20260831220548 80 163 14.0 19.0 0.00 0.00 0.00 6
20260831220050 80 173 16.0 18.0 0.00 0.00 0.00 6
20260831215052 80 167 20.0 18.0 0.00 0.00 0.00 6
20260831214554 80 138 14.0 12.0 0.00 0.00 0.00 6
20260831214056 80 159 13.0 8.0 0.00 0.00 0.00 6
20260831213559 80 170 21.0 21.0 0.00 0.00 0.00 6
20260831213101 80 156 23.0 20.0 0.00 0.00 0.00 6
20260831212600 80 162 14.0 7.0 0.00 0.00 0.00 7
20260831212102 80 180 15.0 19.0 0.00 0.00 0.00 8
20260831211604 80 162 20.0 24.0 0.00 0.00 0.00 7
20260831211107 80 190 17.0 22.0 0.00 0.00 0.00 6
20260831210609 80 187 19.0 21.0 0.00 0.00 0.00 6
20260831210111 80 163 17.0 20.0 0.00 0.00 0.00 6
20260831205610 80 172 19.0 24.0 0.00 0.00 0.00 6
20260831205112 80 165 20.0 23.0 0.00 0.00 0.00 6
20260831204615 80 165 22.0 19.0 0.00 0.00 0.00 6
20260831204117 80 155 22.0 23.0 0.00 0.00 0.00 6
20260831203619 81 165 16.0 14.0 0.00 0.00 0.00 5
20260831203122 81 184 21.0 24.0 0.00 0.00 0.00 5
20260831202621 81 187 22.0 10.0 0.00 0.00 0.00 5
20260831202123 80 208 6.0 14.0 0.00 0.00 0.00 5
20260831201625 80 177 16.0 19.0 0.00 0.00 0.00 5
20260831201128 80 198 18.0 15.0 0.00 0.00 0.00 5
20260831200630 80 179 16.0 18.0 0.00 0.00 0.00 5
20260831200132 80 186 16.0 14.0 0.00 0.00 0.00 6
20260831195631 80 162 17.0 16.0 0.00 0.00 0.00 6
20260831195133 80 180 19.0 23.0 0.00 0.00 0.00 5
20260831194636 80 160 13.0 23.0 0.00 0.00 0.00 5
20260831194138 80 197 16.0 15.0 0.00 0.00 0.00 6
20260831193640 80 181 19.0 13.0 0.00 0.00 0.00 6
20260831193142 80 179 18.0 19.0 0.00 0.00 0.00 5
20260831192642 80 180 15.0 16.0 0.00 0.00 0.00 5
20260831192144 80 166 16.0 16.0 0.00 0.00 0.00 5
20260831191646 80 172 16.0 15.0 0.00 0.00 0.00 5
20260831191148 80 177 15.0 21.0 0.00 0.00 0.00 5
20260831190651 80 162 12.0 17.0 0.00 0.00 0.00 5
20260831190153 80 194 12.0 11.0 0.00 0.00 0.00 5
20260831185651 80 166 16.0 20.0 0.00 0.00 0.00 5
20260831185401 80 191 18.0 17.0 0.00 0.00 0.00 5
20260831185153 80 191 18.0 17.0 0.00 0.00 0.00 5
20260831184656 80 195 16.0 16.0 0.00 0.00 0.00 5
20260831184158 80 176 18.0 16.0 0.00 0.00 0.00 5
20260831183700 80 194 15.0 18.0 0.00 0.00 0.00 5
20260831182702 80 187 13.0 15.0 0.00 0.00 0.00 5
20260831182204 80 173 13.0 14.0 0.00 0.00 0.00 4
20260831181706 80 193 18.0 16.0 0.00 0.00 0.00 4
20260831181209 80 174 13.0 13.0 0.00 0.00 0.00 4
20260831180711 80 208 14.0 11.0 0.00 0.00 0.00 4
20260831180213 80 207 11.0 9.0 0.00 0.00 0.00 5
20260831175712 80 193 13.0 16.0 0.00 0.00 0.00 5
20260831175215 80 193 14.0 9.0 0.00 0.00 0.00 5
20260831174717 80 204 12.0 14.0 0.00 0.00 0.00 4
20260831174219 80 195 16.0 14.0 0.00 0.00 0.00 5
20260831173721 79 194 14.0 11.0 0.00 0.00 0.00 5
20260831173306 79 205 12.0 14.0 0.00 0.00 0.00 5
20260831173224 79 205 12.0 14.0 0.00 0.00 0.00 5
20260831172724 79 203 16.0 15.0 0.00 0.00 0.00 5
20260831172225 79 229 17.0 17.0 0.00 0.00 0.00 5
20260831171727 79 211 12.0 9.0 0.00 0.00 0.00 5
20260831171230 79 236 12.0 3.0 0.00 0.00 0.00 5
20260831170732 79 181 13.0 17.0 0.00 0.00 0.00 6
20260831170312 79 236 8.0 7.0 0.00 0.00 0.00 6
20260831170234 79 236 8.0 7.0 0.00 0.00 0.00 6
20260831165734 78 208 9.0 11.0 0.00 0.00 0.00 6
20260831164738 77 231 9.0 11.0 0.00 0.00 0.00 8
20260831164240 77 249 7.0 8.0 0.00 0.00 0.00 11
20260831163743 77 224 11.0 15.0 0.00 0.00 0.00 11
20260831163245 76 212 11.0 11.0 0.00 0.00 0.00 12
20260831162744 76 212 10.0 12.0 0.00 0.00 0.00 13
20260831162247 75 207 9.0 14.0 0.00 0.00 0.00 15
20260831161749 75 184 7.0 9.0 0.00 0.00 0.00 16
20260831161251 75 207 7.0 8.0 0.00 0.00 0.00 19
20260831160753 74 224 8.0 3.0 0.00 0.00 0.00 21
20260831160256 73 233 9.0 12.0 0.00 0.00 0.00 23
20260831155755 73 229 6.0 9.0 0.00 0.00 0.00 28
20260831155257 72 205 7.0 9.0 0.00 0.00 0.00 29
20260831154302 71 238 8.0 8.0 0.00 0.00 0.00 32
20260831153804 71 208 8.0 9.0 0.00 0.00 0.00 33
20260831153306 70 225 9.0 10.0 0.00 0.00 0.00 35
20260831152806 69 232 5.0 8.0 0.00 0.00 0.00 39
20260831152308 69 236 10.0 13.0 0.00 0.00 0.00 41
20260831151810 69 238 8.0 11.0 0.00 0.00 0.00 43
20260831151313 68 243 7.0 7.0 0.00 0.00 0.00 45
20260831150815 68 260 7.0 7.0 0.00 0.00 0.00 47
20260831150317 67 235 8.0 10.0 0.00 0.00 0.00 49
20260831145816 66 235 9.0 12.0 0.00 0.00 0.00 52
20260831145319 66 238 9.0 7.0 0.00 0.00 0.00 56
20260831144323 65 236 9.0 9.0 0.00 0.00 0.00 62
20260831143826 64 235 9.0 9.0 0.00 0.00 0.00 64
20260831143328 64 238 6.0 7.0 0.00 0.00 0.00 67
20260831142827 64 233 5.0 6.0 0.00 0.00 0.00 69
20260831142329 64 212 2.0 7.0 0.00 0.00 0.00 71
20260831141832 63 222 6.0 10.0 0.00 0.00 0.00 72
20260831141334 63 255 5.0 0.0 0.00 0.00 0.00 73
20260831140837 63 239 9.0 10.0 0.00 0.00 0.00 75
20260831140339 62 194 9.0 6.0 0.00 0.00 0.00 76
20260831135838 62 205 6.0 6.0 0.00 0.00 0.00 76
20260831135340 62 232 7.0 6.0 0.00 0.00 0.00 77
20260831134841 62 222 11.0 10.0 0.00 0.00 0.00 79
20260831134343 62 226 12.0 13.0 0.00 0.00 0.00 81
20260831133845 61 245 13.0 9.0 0.00 0.00 0.00 82
20260831133347 61 219 10.0 12.0 0.00 0.00 0.00 83
20260831132846 61 229 13.0 13.0 0.00 0.00 0.00 83
20260831132349 61 218 13.0 15.0 0.00 0.00 0.00 82
20260831131851 61 217 13.0 14.0 0.00 0.00 0.00 81
20260831131353 61 239 13.0 15.0 0.00 0.00 0.00 82
20260831130358 61 231 13.0 14.0 0.00 0.00 0.00 81
20260831125857 61 250 11.0 10.0 0.00 0.00 0.00 80
20260831125359 61 235 13.0 13.0 0.00 0.00 0.00 79
20260831124902 62 242 11.0 12.0 0.00 0.00 0.00 78
20260831124404 62 232 11.0 10.0 0.00 0.00 0.00 76
20260831123906 62 236 11.0 10.0 0.00 0.00 0.00 75
20260831123409 62 238 12.0 9.0 0.00 0.00 0.00 73
20260831122908 62 233 13.0 12.0 0.00 0.00 0.00 72
20260831122410 62 221 12.0 16.0 0.00 0.00 0.00 70
20260831121912 62 221 11.0 12.0 0.00 0.00 0.00 69
20260831121415 62 239 11.0 7.0 0.00 0.00 0.00 66
20260831120917 63 222 14.0 11.0 0.00 0.00 0.00 65
20260831120419 63 212 11.0 16.0 0.00 0.00 0.00 62
20260831115918 63 207 11.0 17.0 0.00 0.00 0.00 62
20260831115421 63 212 15.0 13.0 0.00 0.00 0.00 62
20260831114923 63 214 12.0 13.0 0.00 0.00 0.00 60
20260831114425 63 217 15.0 17.0 0.00 0.00 0.00 60
20260831113927 63 198 13.0 9.0 0.00 0.00 0.00 61
20260831113430 63 205 14.0 14.0 0.00 0.00 0.00 60
20260831112929 63 211 14.0 18.0 0.00 0.00 0.00 60
20260831112431 63 211 13.0 8.0 0.00 0.00 0.00 62
20260831111934 63 210 12.0 11.0 0.00 0.00 0.00 63
20260831111436 63 212 9.0 10.0 0.00 0.00 0.00 63
20260831110938 63 205 6.0 9.0 0.00 0.00 0.00 62
20260831110442 63 232 9.0 6.0 0.00 0.00 0.00 60
20260831105940 63 207 10.0 8.0 0.00 0.00 0.00 60
20260831105444 63 11.0 8.0 0.00 0.00 0.00 61
20260831105442 63 243 11.0 8.0 0.00 0.00 0.00 61
20260831104944 63 194 10.0 8.0 0.00 0.00 0.00 61
20260831104446 63 239 9.0 6.0 0.00 0.00 0.00 60
20260831103949 63 238 8.0 6.0 0.00 0.00 0.00 59
20260831103451 63 221 11.0 12.0 0.00 0.00 0.00 57
20260831102950 64 233 9.0 9.0 0.00 0.00 0.00 56
20260831102452 64 194 11.0 16.0 0.00 0.00 0.00 54
20260831101955 64 228 11.0 13.0 0.00 0.00 0.00 52
20260831101457 65 207 12.0 13.0 0.00 0.00 0.00 49
20260831101000 65 219 12.0 15.0 0.00 0.00 0.00 47
20260831100959 65 219 12.0 15.0 0.00 0.00 0.00 47
20260831100502 65 193 13.0 15.0 0.00 0.00 0.00 46
20260831100001 65 187 14.0 12.0 0.00 0.00 0.00 45
20260831095503 65 173 12.0 11.0 0.00 0.00 0.00 44
20260831095005 65 203 14.0 16.0 0.00 0.00 0.00 43
20260831094507 65 217 13.0 14.0 0.00 0.00 0.00 42
20260831094009 65 225 14.0 11.0 0.00 0.00 0.00 41
20260831093511 65 195 13.0 8.0 0.00 0.00 0.00 41
20260831093010 65 207 13.0 19.0 0.00 0.00 0.00 42
20260831092513 65 195 13.0 14.0 0.00 0.00 0.00 42
20260831092015 65 214 13.0 10.0 0.00 0.00 0.00 43
20260831091517 65 204 13.0 11.0 0.00 0.00 0.00 44
20260831091020 65 214 10.0 9.0 0.00 0.00 0.00 44
20260831090522 65 222 12.0 14.0 0.00 0.00 0.00 45
20260831090021 64 204 13.0 8.0 0.00 0.00 0.00 46
20260831085523 64 170 13.0 8.0 0.00 0.00 0.00 48
20260831085026 64 224 13.0 15.0 0.00 0.00 0.00 51
20260831084528 64 228 11.0 9.0 0.00 0.00 0.00 54
20260831084030 64 217 12.0 11.0 0.00 0.00 0.00 56
20260831083533 64 200 14.0 13.0 0.00 0.00 0.00 59
20260831083032 64 228 12.0 11.0 0.00 0.00 0.00 63
20260831082036 64 179 11.0 13.0 0.00 0.00 0.00 68
20260831081538 64 201 13.0 13.0 0.00 0.00 0.00 69
20260831081041 64 215 11.0 10.0 0.00 0.00 0.00 69
20260831080543 64 198 12.0 10.0 0.00 0.00 0.00 69
20260831080042 64 214 9.0 11.0 0.00 0.00 0.00 69
20260831075544 64 228 10.0 13.0 0.00 0.00 0.00 69
20260831075047 64 232 12.0 11.0 0.00 0.00 0.00 70
20260831074549 64 225 12.0 12.0 0.00 0.00 0.00 70
20260831074052 64 184 11.0 8.0 0.00 0.00 0.00 71
20260831073554 64 208 12.0 8.0 0.00 0.00 0.00 72
20260831073054 64 204 12.0 10.0 0.00 0.00 0.00 73
20260831072555 64 170 9.0 8.0 0.00 0.00 0.00 74
20260831072057 64 204 10.0 10.0 0.00 0.00 0.00 74
20260831071600 64 191 9.0 9.0 0.00 0.00 0.00 74
20260831071102 64 224 12.0 10.0 0.00 0.00 0.00 75
20260831070604 64 224 10.0 8.0 0.00 0.00 0.00 75
20260831070103 64 217 11.0 11.0 0.00 0.00 0.00 75
20260831065606 65 211 11.0 12.0 0.00 0.00 0.00 75
20260831065108 64 219 10.0 10.0 0.00 0.00 0.00 75
20260831064610 64 198 11.0 12.0 0.00 0.00 0.00 74
20260831064112 64 215 10.0 9.0 0.00 0.00 0.00 74
20260831063615 65 217 10.0 9.0 0.00 0.00 0.00 73
20260831063149 65 205 12.0 14.0 0.00 0.00 0.00 73
20260831063114 65 205 12.0 14.0 0.00 0.00 0.00 73
20260831062714 65 207 11.0 14.0 0.00 0.00 0.00 72
20260831062616 65 207 11.0 14.0 0.00 0.00 0.00 72
20260831062118 65 194 13.0 14.0 0.00 0.00 0.00 70
20260831061621 65 194 12.0 12.0 0.00 0.00 0.00 67
20260831061123 66 240 12.0 7.0 0.00 0.00 0.00 64
20260831060625 66 240 13.0 8.0 0.00 0.00 0.00 60
20260831060125 66 217 11.0 14.0 0.00 0.00 0.00 57
20260831055627 67 214 11.0 9.0 0.00 0.00 0.00 53
20260831055129 67 200 11.0 14.0 0.00 0.00 0.00 48
20260831054631 68 207 10.0 9.0 0.00 0.00 0.00 45
20260831054133 69 212 12.0 16.0 0.00 0.00 0.00 40
20260831053636 70 208 11.0 12.0 0.00 0.00 0.00 35
20260831053135 70 228 11.0 12.0 0.00 0.00 0.00 30
20260831052637 71 194 10.0 9.0 0.00 0.00 0.00 24
20260831052140 71 156 12.0 10.0 0.00 0.00 0.00 23
20260831051642 71 174 15.0 12.0 0.00 0.00 0.00 23
20260831051144 72 155 14.0 18.0 0.00 0.00 0.00 22
20260831050145 72 195 14.0 14.0 0.00 0.00 0.00 21
20260831045648 72 177 13.0 11.0 0.00 0.00 0.00 21
20260831044652 71 177 16.0 17.0 0.00 0.00 0.00 22
20260831044154 71 183 17.0 20.0 0.00 0.00 0.00 23
20260831043657 71 186 19.0 17.0 0.00 0.00 0.00 24
20260831043156 71 159 17.0 19.0 0.00 0.00 0.00 24
20260831042200 71 176 18.0 18.0 0.00 0.00 0.00 24
20260831041703 71 180 15.0 15.0 0.00 0.00 0.00 24
20260831041205 71 172 16.0 19.0 0.00 0.00 0.00 25
20260831040707 71 177 14.0 12.0 0.00 0.00 0.00 25
20260831040206 72 159 14.0 15.0 0.00 0.00 0.00 24
20260831035709 72 160 12.0 12.0 0.00 0.00 0.00 23
20260831035211 73 174 12.0 11.0 0.00 0.00 0.00 22
20260831034713 74 160 10.0 11.0 0.00 0.00 0.00 20
20260831034215 74 156 7.0 7.0 0.00 0.00 0.00 17
20260831033718 75 173 9.0 10.0 0.00 0.00 0.00 14
20260831033217 75 195 9.0 9.0 0.00 0.00 0.00 14
20260831032719 75 181 11.0 11.0 0.00 0.00 0.00 14
20260831032221 76 190 13.0 14.0 0.00 0.00 0.00 14
20260831031724 76 186 12.0 12.0 0.00 0.00 0.00 13
20260831031226 76 176 13.0 15.0 0.00 0.00 0.00 13
20260831030728 76 184 17.0 19.0 0.00 0.00 0.00 12
20260831030227 76 197 12.0 11.0 0.00 0.00 0.00 12
20260831025232 77 191 9.0 9.0 0.00 0.00 0.00 9
20260831024734 77 191 11.0 13.0 0.00 0.00 0.00 8
20260831023739 77 190 11.0 9.0 0.00 0.00 0.00 9
20260831023238 77 204 11.0 8.0 0.00 0.00 0.00 8
20260831022741 78 201 11.0 0.0 0.00 0.00 0.00 8
20260831022243 78 207 16.0 0.0 0.00 0.00 0.00 7
20260831021745 78 208 15.0 13.0 0.00 0.00 0.00 6
20260831021247 79 204 10.0 13.0 0.00 0.00 0.00 6
20260831020749 79 215 17.0 8.0 0.00 0.00 0.00 6
20260831020248 79 214 16.0 16.0 0.00 0.00 0.00 6
20260831015750 79 203 14.0 10.0 0.00 0.00 0.00 6
20260831015253 80 183 16.0 12.0 0.00 0.00 0.00 6
20260831014755 80 204 14.0 17.0 0.00 0.00 0.00 6
20260831014257 80 197 15.0 17.0 0.00 0.00 0.00 6
20260831013800 80 222 18.0 23.0 0.00 0.00 0.00 6
20260831013259 80 198 18.0 20.0 0.00 0.00 0.00 6
20260831012801 81 195 17.0 18.0 0.00 0.00 0.00 6
20260831012305 81 203 16.0 17.0 0.00 0.00 0.00 6
20260831011805 81 176 12.0 7.0 0.00 0.00 0.00 6
20260831011308 81 204 14.0 18.0 0.00 0.00 0.00 7
20260831010810 82 217 13.0 20.0 0.00 0.00 0.00 6
20260831010309 82 212 18.0 18.0 0.00 0.00 0.00 6
20260831005811 82 201 13.0 16.0 0.00 0.00 0.00 6
20260831005314 82 190 15.0 12.0 0.00 0.00 0.00 7
20260831004816 82 210 12.0 14.0 0.00 0.00 0.00 7
20260831004415 82 198 15.0 19.0 0.00 0.00 0.00 8
20260831004318 82 198 15.0 19.0 0.00 0.00 0.00 8
20260831003820 82 176 15.0 13.0 0.00 0.00 0.00 8
20260831003319 83 194 15.0 22.0 0.00 0.00 0.00 7
20260831002822 82 180 19.0 14.0 0.00 0.00 0.00 7
20260831002324 83 210 17.0 18.0 0.00 0.00 0.00 7
20260831001826 83 169 19.0 16.0 0.00 0.00 0.00 7
20260831001329 82 190 18.0 17.0 0.00 0.00 0.00 7
20260831000831 83 181 20.0 19.0 0.00 0.00 0.00 7
20260831000332 83 190 22.0 21.0 0.00 0.00 0.00 7
20260830235832 83 197 21.0 21.0 0.00 0.00 0.00 7
20260830235334 83 201 21.0 24.0 0.00 0.00 0.00 7
20260830234339 83 203 19.0 17.0 0.00 0.00 0.00 6
20260830233841 84 195 22.0 28.0 0.00 0.00 0.00 6
20260830233340 84 169 16.0 22.0 0.00 0.00 0.00 6
20260830232843 84 188 22.0 19.0 0.00 0.00 0.00 5
20260830232345 84 191 18.0 15.0 0.00 0.00 0.00 5